Location: Crescent
(42.8242°N, 73.7329°W)
Time: 20:38:55
(UTC+00:00)

SR - Pass Details

Date: 22 February 2026
Orbit: 573 x 848 km, 66.7° (Epoch: 6 March)

Event Time Altitude Azimuth Distance (km) Brightness Sun altitude
Rises 09:10:54 0° 237° (WSW) 2,777 - -28.3°
Reaches altitude 10° 09:13:18 10° 248° (WSW) 1,897 - -27.9°
Maximum altitude 09:17:03 30° 311° (NW) 1,085 - -27.2°
Exits shadow 09:19:27 18° 359° (N) 1,499 ? -26.7°
Drops below altitude 10° 09:20:59 10° 13° (NNE) 1,998 ? -26.5°
Sets 09:23:35 0° 24° (NNE) 2,952 ? -26.0°
